Powrót do katalogu

STARLINK-31666

AktywnyŁącznośćVLEO
NORAD 59572·PAYLOAD·🇺🇸 United States

Wystrzelony Apr 23, 2024 z Cape Canaveral Space Force Station

Loading…

Następne Przeloty (najbliższe 24 godziny)

TLE

ŚwieżeSource: CelesTrak SupGP

Epoka: Sep 14, 2026, 22:12 UTC

1 59572C 24076J   26257.92548611 -.00007398  00000+0 -26791-3 0  2578
2 59572  43.0038  13.3264 0002274 277.9763  98.8750 15.27584394    19

Śledź STARLINK-31666 w czasie rzeczywistym z AllMySat

Download on the App Store